Stations météo

réclame
Mon MeteoGroup
Muret-Lherm, France (7628): Température de l'air & dewpoint: 18.01.2018 10:00:00 - 24.01.2018 10:00:00 (CET)Muret-Lherm, France (7628): Vitesse du vent & gusts: 18.01.2018 10:00:00 - 24.01.2018 10:00:00 (CET)Muret-Lherm, France (7628): Direction du vent: 18.01.2018 10:00:00 - 24.01.2018 10:00:00 (CET)Muret-Lherm, France (7628): reduced air pressure: 18.01.2018 10:00:00 - 24.01.2018 10:00:00 (CET)Muret-Lherm, France (7628): visibility: 18.01.2018 10:00:00 - 24.01.2018 10:00:00 (CET)Muret-Lherm, France (7628): Quantités de précipitations: 18.01.2018 10:00:00 - 24.01.2018 10:00:00 (CET)
Date & Time tt [°C] td [°C] ff [km/h] ff [knt] fx [km/h] fx [knt] dd ppp [hPa] vv [km] rr [mm]
24.01.2018 10:00:00 6,8 6,8 0 0 8 4 N 1025,2 3,0 -
24.01.2018 09:00:00 5,4 5,4 2 1 4 2 E 1025,7 0,2 0,0
24.01.2018 08:00:00 5,4 5,4 0 0 4 2 N 1025,9 0,3 0,2
24.01.2018 07:00:00 6,2 6,2 2 1 4 2 NW 1026,1 0,1 -
24.01.2018 06:00:00 6,2 6,2 4 2 4 2 NW 1026,6 0,1 0,0
24.01.2018 05:00:00 6,3 6,0 0 0 4 2 N 1027,3 0,2 0,0
24.01.2018 04:00:00 8,1 7,8 0 0 8 4 N 1028,0 0,1 0,0
24.01.2018 03:00:00 9,6 9,3 0 0 4 2 N 1028,8 1,7 0,0
24.01.2018 02:00:00 9,8 9,5 2 1 5 3 SSE 1029,3 5 0,0
24.01.2018 01:00:00 10,2 9,9 2 1 5 3 SE 1029,9 8 -
24.01.2018 00:00:00 10,3 9,8 2 1 4 2 ESE 1030,3 13 0,0
23.01.2018 23:00:00 10,9 10,0 2 1 8 4 E 1030,1 20 0,0
23.01.2018 22:00:00 10,8 10,6 4 2 5 3 NE 1030,1 14 -
23.01.2018 21:00:00 10,4 10,1 2 1 5 3 SW 1030,3 11 0,0
23.01.2018 20:00:00 11,3 10,5 4 2 9 5 S 1030,5 18 0,0
23.01.2018 19:00:00 12,1 10,8 5 3 15 8 NNE 1030,4 20 -
23.01.2018 18:00:00 12,7 11,9 5 3 16 9 NNW 1029,9 12 0,0
23.01.2018 17:00:00 13,6 11,3 9 5 21 11 NW 1029,5 20 0,0
23.01.2018 16:00:00 13,9 11,4 13 7 21 11 NW 1029,3 20 0,0
23.01.2018 15:00:00 14,2 11,4 9 5 13 7 NNW 1029,0 20 0,0
23.01.2018 14:00:00 13,4 10,0 2 1 8 4 ENE 1029,5 8 0,0
23.01.2018 13:00:00 13,3 9,9 2 1 5 3 ESE 1030,2 17 -
23.01.2018 12:00:00 10,2 9,4 0 0 8 4 N 1031,2 20 0,0
23.01.2018 11:00:00 9,6 9,6 0 0 4 2 N 1031,4 14 0,0
23.01.2018 10:00:00 9,1 9,1 2 1 5 3 SW 1031,1 3,3 0,0
23.01.2018 09:00:00 8,1 8,1 0 0 5 3 N 1030,4 0,8 0,2
23.01.2018 08:00:00 7,4 7,4 2 1 5 3 E 1030,0 2,9 0,0
23.01.2018 07:00:00 7,0 7,0 2 1 4 2 ENE 1029,7 3,0 -
23.01.2018 06:00:00 6,4 6,4 0 0 11 6 N 1029,3 2,0 0,0
23.01.2018 05:00:00 6,7 6,7 8 4 9 5 NW 1029,0 11 0,0
23.01.2018 04:00:00 7,0 6,9 9 5 11 6 SSW 1029,2 19 0,0
23.01.2018 03:00:00 8,5 8,2 4 2 9 5 NNW 1028,9 15 0,0
23.01.2018 02:00:00 9,9 9,1 4 2 11 6 W 1029,3 20 0,0
23.01.2018 01:00:00 10,2 9,6 5 3 9 5 W 1029,7 20 -
23.01.2018 00:00:00 9,7 8,9 4 2 22 12 N 1029,9 20 0,0
22.01.2018 23:00:00 10,4 9,3 13 7 26 14 W 1029,3 20 0,0
22.01.2018 22:00:00 10,9 9,3 18 10 41 22 WNW 1028,6 20 -
22.01.2018 21:00:00 11,9 9,8 29 16 50 27 W 1027,9 20 0,0
22.01.2018 20:00:00 12,2 10,3 29 16 48 26 W 1027,7 20 0,0
22.01.2018 19:00:00 12,3 10,4 29 16 48 26 W 1027,0 20 -
22.01.2018 18:00:00 12,5 10,4 29 16 41 22 W 1026,4 20 0,0
22.01.2018 17:00:00 12,4 10,6 28 15 44 24 W 1025,8 19 0,0
22.01.2018 16:00:00 12,9 10,4 29 16 52 28 W 1025,4 8 -
22.01.2018 15:00:00 13,9 9,7 35 19 55 30 W 1024,7 20 0,0
22.01.2018 14:00:00 14,1 9,7 39 21 59 32 W 1024,9 20 0,0
22.01.2018 13:00:00 13,8 10,4 29 16 44 24 W 1026,0 20 -
22.01.2018 12:00:00 13,7 10,5 28 15 39 21 W 1026,8 20 0,0
22.01.2018 11:00:00 13,5 10,5 26 14 37 20 W 1027,2 20 0,0
22.01.2018 10:00:00 12,2 10,8 22 12 34 18 W 1027,1 20 -
22.01.2018 09:00:00 11,4 10,5 16 9 37 20 W 1027,0 3,2 0,2
22.01.2018 08:00:00 11,9 10,1 18 10 29 16 W 1026,6 20 0,0
22.01.2018 07:00:00 11,9 10,6 15 8 26 14 W 1026,3 20 -
22.01.2018 06:00:00 11,9 10,8 16 9 37 20 W 1026,4 20 0,0
22.01.2018 05:00:00 12,0 10,9 24 13 39 21 W 1026,3 20 0,2
22.01.2018 04:00:00 11,9 11,0 22 12 35 19 W 1026,6 20 0,2
22.01.2018 03:00:00 12,0 10,7 26 14 39 21 W 1026,7 20 0,0
22.01.2018 02:00:00 11,8 11,3 18 10 34 18 W 1027,1 3,2 0,6
22.01.2018 01:00:00 11,9 11,1 22 12 35 19 W 1027,2 10 -
22.01.2018 00:00:00 11,7 11,1 22 12 39 21 W 1027,2 5 0,0
21.01.2018 23:00:00 12,2 10,8 22 12 41 22 W 1027,0 15 0,0
21.01.2018 22:00:00 12,1 10,7 22 12 44 24 W 1026,9 20 -
21.01.2018 21:00:00 12,3 10,7 28 15 42 23 W 1026,9 19 0,0
21.01.2018 20:00:00 12,3 10,7 31 17 57 31 W 1026,8 20 0,0
21.01.2018 19:00:00 12,3 11,4 29 16 46 25 W 1026,1 20 -
21.01.2018 18:00:00 12,4 11,8 28 15 44 24 W 1025,7 3,9 0,2
21.01.2018 17:00:00 12,5 11,9 28 15 52 28 W 1025,5 4,2 0,2
21.01.2018 16:00:00 13,1 11,8 31 17 50 27 W 1025,1 12 -
21.01.2018 15:00:00 12,9 12,1 34 18 54 29 W 1024,6 9 0,4
21.01.2018 14:00:00 12,8 12,0 34 18 50 27 W 1024,3 4,2 0,2
21.01.2018 13:00:00 13,1 12,3 29 16 46 25 W 1024,2 4,9 -
21.01.2018 12:00:00 12,7 11,8 31 17 55 30 W 1024,3 6 0,4
21.01.2018 11:00:00 12,6 11,7 29 16 48 26 W 1023,7 18 0,4
21.01.2018 10:00:00 12,4 11,8 28 15 42 23 W 1023,2 5 -
21.01.2018 09:00:00 12,2 11,6 28 15 46 25 W 1022,7 3,3 0,4
21.01.2018 08:00:00 12,4 11,3 29 16 44 24 W 1022,1 20 0,4
21.01.2018 07:00:00 12,4 11,3 31 17 50 27 W 1021,8 18 -
21.01.2018 06:00:00 12,5 11,2 31 17 54 29 W 1021,3 20 0,0
21.01.2018 05:00:00 12,5 11,2 31 17 50 27 W 1021,2 20 0,2
21.01.2018 04:00:00 12,3 11,4 31 17 54 29 W 1021,3 20 -
21.01.2018 03:00:00 12,1 11,5 28 15 44 24 W 1021,3 2,9 0,2
21.01.2018 02:00:00 12,0 11,4 28 15 44 24 W 1021,1 5 0,2
21.01.2018 01:00:00 11,7 11,2 26 14 41 22 W 1020,6 4,8 -
21.01.2018 00:00:00 11,8 11,3 28 15 42 23 W 1020,4 3,2 0,4
20.01.2018 23:00:00 11,9 11,3 26 14 46 25 W 1020,1 3,2 0,6
20.01.2018 22:00:00 11,8 11,2 34 18 52 28 W 1020,1 5 -
20.01.2018 21:00:00 11,5 10,9 34 18 52 28 W 1019,6 7 0,0
20.01.2018 20:00:00 11,3 10,5 31 17 52 28 W 1018,8 8 0,4
20.01.2018 19:00:00 11,3 10,4 37 20 59 32 W 1018,5 4,1 -
20.01.2018 18:00:00 11,2 9,8 37 20 65 35 W 1018,2 20 0,2
20.01.2018 17:00:00 10,8 9,4 37 20 63 34 W 1017,5 20 2,0
20.01.2018 16:00:00 10,5 8,9 41 22 70 38 W 1017,5 14 -
20.01.2018 15:00:00 11,1 8,0 44 24 78 42 W 1017,0 20 0,2
20.01.2018 14:00:00 11,1 6,8 44 24 78 42 W 1017,5 20 0,0
20.01.2018 13:00:00 9,8 6,5 35 19 57 31 W 1018,4 20 -
20.01.2018 12:00:00 9,6 6,9 34 18 57 31 W 1019,3 9 0,6
20.01.2018 11:00:00 9,4 5,8 15 8 28 15 WSW 1019,8 20 0,0
20.01.2018 10:00:00 7,5 5,1 13 7 16 9 SW 1020,1 20 0,0
20.01.2018 09:00:00 6,7 4,7 11 6 15 8 SW 1020,8 20 0,0
20.01.2018 08:00:00 6,5 4,2 11 6 16 9 W 1021,6 20 0,0
20.01.2018 07:00:00 4,4 3,8 5 3 9 5 SSW 1022,0 20 -
20.01.2018 06:00:00 3,9 3,3 9 5 16 9 SSW 1022,7 20 0,0
20.01.2018 05:00:00 5,6 4,2 13 7 21 11 WSW 1023,3 20 0,0
20.01.2018 04:00:00 6,4 5,5 13 7 22 12 WSW 1024,4 20 -
20.01.2018 03:00:00 6,2 5,2 11 6 21 11 WSW 1025,0 20 0,0
20.01.2018 02:00:00 7,2 5,8 15 8 35 19 W 1025,1 20 0,0
20.01.2018 01:00:00 8,2 6,2 21 11 31 17 W 1025,1 20 -
20.01.2018 00:00:00 8,0 6,1 18 10 37 20 W 1025,0 12 0,2
19.01.2018 23:00:00 8,1 6,4 18 10 35 19 W 1024,4 20 0,0
19.01.2018 22:00:00 7,9 6,2 16 9 42 23 W 1023,9 20 -
19.01.2018 21:00:00 8,8 7,2 21 11 31 17 W 1023,4 18 0,4
19.01.2018 20:00:00 9,1 6,4 21 11 46 25 W 1022,9 16 0,0
19.01.2018 19:00:00 9,0 6,8 22 12 41 22 W 1022,2 20 -
19.01.2018 18:00:00 9,8 6,9 15 8 26 14 W 1021,6 20 0,0
19.01.2018 17:00:00 9,8 7,2 16 9 31 17 W 1021,0 20 0,6
19.01.2018 16:00:00 10,5 7,7 28 15 44 24 NW 1020,6 14 -
19.01.2018 15:00:00 10,9 7,9 16 9 42 23 WNW 1020,3 20 0,6
19.01.2018 14:00:00 11,9 8,7 21 11 42 23 W 1020,0 20 0,2
19.01.2018 13:00:00 12,2 8,5 18 10 39 21 W 1020,6 20 -
19.01.2018 12:00:00 11,8 8,8 24 13 44 24 W 1021,1 20 0,0
19.01.2018 11:00:00 10,7 8,6 22 12 39 21 WNW 1021,5 14 0,0
19.01.2018 10:00:00 9,9 8,5 18 10 29 16 W 1021,1 20 -
19.01.2018 09:00:00 9,6 8,4 13 7 22 12 W 1020,8 20 0,0
19.01.2018 08:00:00 9,2 8,6 11 6 35 19 WNW 1020,5 20 0,2
19.01.2018 07:00:00 10,1 9,0 18 10 34 18 W 1019,8 3,5 -
19.01.2018 06:00:00 10,5 8,3 26 14 41 22 W 1019,7 20 0,0
19.01.2018 05:00:00 10,2 8,0 24 13 39 21 W 1019,5 20 0,0
19.01.2018 04:00:00 9,8 7,6 26 14 39 21 W 1019,8 20 -
19.01.2018 03:00:00 10,1 7,3 26 14 37 20 W 1020,2 20 0,0
19.01.2018 02:00:00 9,7 7,3 22 12 31 17 W 1020,8 20 0,0
19.01.2018 01:00:00 8,8 6,8 13 7 22 12 SW 1021,3 20 -
19.01.2018 00:00:00 8,9 7,0 13 7 18 10 SSW 1021,7 20 0,0
18.01.2018 23:00:00 8,1 6,4 13 7 18 10 SSW 1022,2 20 0,0
18.01.2018 22:00:00 8,2 6,3 13 7 22 12 SW 1022,2 20 -
18.01.2018 21:00:00 8,8 6,4 13 7 26 14 WSW 1022,0 20 0,0
18.01.2018 20:00:00 8,2 6,0 11 6 15 8 SSW 1022,2 20 0,0
18.01.2018 19:00:00 8,9 5,5 2 1 9 5 W 1022,0 20 -
18.01.2018 18:00:00 10,1 5,5 9 5 18 10 WNW 1021,7 20 0,0
18.01.2018 17:00:00 12,4 5,8 15 8 24 13 W 1021,3 20 0,0
18.01.2018 16:00:00 12,9 6,2 13 7 22 12 W 1021,4 20 -
18.01.2018 15:00:00 12,9 5,8 11 6 18 10 W 1021,7 19 0,0
18.01.2018 14:00:00 12,0 6,1 13 7 24 13 W 1022,4 19 0,0
18.01.2018 13:00:00 11,7 5,6 11 6 24 13 W 1023,4 19 -
18.01.2018 12:00:00 10,6 6,0 11 6 24 13 SSW 1024,3 20 0,0
18.01.2018 11:00:00 7,6 4,2 18 10 24 13 SSW 1025,2 20 0,0
18.01.2018 10:00:00 4,9 2,9 11 6 18 10 S 1025,7 20 -

tt = Température de l'air
td = dewpoint
ff = Vitesse du vent
fx = gusts
dd = Direction du vent
ppp = reduced air pressure
vv = visibility
rr = Quantités de précipitations

stations d'obs. à proximité